sat.trackr.live / text

‹ back to catalog

STARLINK-30884

NORAD 58372 · 2023-177X

PAYLOAD ACTIVE UNKNOWN

§ Identity

Operator
Country
US
Launch date
2023-11-18
Launch site
AFETR
Launch vehicle
Mass (kg)
RCS (m²)

Purposes: comms

External: N2YO · Heavens-Above · Gunter

§ Orbital elements

Epoch: 2026-09-20T20:56:38.946336Z

Period
94.27 min
Inclination
43.0047°
Eccentricity
0.0000871
Mean motion
15.27573570 rev/d
Perigee alt
482.5 km
Apogee alt
483.7 km
Semi-major
6,861.2 km
B*
-1.3973e-4
RAAN
328.6929°
Arg perigee
276.3517°
Mean anomaly
83.7235°
Rev number
15,807

§ Raw data

STARLINK-308841 58372U 23177X   26263.87267299 -.00004104  00000+0 -13973-3 0  99902 58372  43.0047 328.6929 0000871 276.3517  83.7235 15.27573570158072

JSON: /api/v1/satellites/58372 · /tle

For live sub-satellite position, see the globe view (requires WebGL).

§ Visibility from observer

Set your observer location to see the next 7 days of passes ≥ 10°. The values pass through the URL so the page stays shareable.

No JS? Fill the form by hand. The geolocation button needs JavaScript.